Probability
52 48 65 81 68 42 16 10 10 10 0 0 0 3 3 6 6 0 0 10 13 19 23 29 39 39 35 32 35 32 32 39 42 42 42 39 39 39 39 39 35 45 45 42 35 39 29 32 35
55 45 55 68 45 13 0 16 13 10 3 0 3 3 3 0 3 3 6 10 10 10 19 19 32 32 35 32 32 29 29 32 32 32 35 39 35 32 32 29 35 32 32 45 39 35 29 35 32
48 39 52 58 26 3 0 13 10 3 6 3 3 3 3 0 3 3 0 10 6 10 10 26 29 19 26 29 26 29 29 29 26 23 23 23 23 32 32 26 26 26 23 26 26 32 32 32 26
45 58 45 32 6 0 10 10 13 3 3 3 3 3 0 0 3 3 0 6 6 6 6 19 19 23 26 19 16 19 13 16 19 23 23 23 16 16 16 19 16 19 19 23 26 35 29 26 26
45 58 23 10 0 3 6 3 6 3 3 3 3 0 0 0 3 3 6 6 6 6 6 3 16 23 13 13 13 13 13 13 10 13 13 13 13 13 13 10 13 16 23 19 23 23 23 26 29
52 52 16 3 0 3 3 3 3 3 3 3 0 0 0 3 3 0 6 10 6 6 3 3 13 10 10 6 6 6 6 6 10 10 10 10 10 10 6 10 13 19 23 23 26 29 29 32 29
52 23 3 0 0 3 3 3 6 3 3 3 0 0 0 6 6 3 3 6 3 3 3 3 3 3 6 6 6 6 6 6 6 6 10 13 13 6 10 10 6 10 16 26 23 26 23 19 19
48 26 3 0 0 0 3 3 3 3 3 3 0 0 0 3 6 3 3 3 3 3 3 3 3 3 3 3 6 6 6 6 6 6 6 10 13 6 10 10 10 13 16 23 23 23 23 13 19
6 13 0 0 0 3 3 3 3 3 3 0 0 0 0 3 3 6 0 0 3 3 3 3 3 3 3 3 3 3 0 0 0 0 6 10 0 0 0 3 10 13 10 16 16 19 26 13 10
13 3 0 0 0 0 3 0 0 0 0 0 0 0 0 3 3 3 0 0 0 3 3 3 3 3 0 0 0 0 0 0 0 0 0 0 0 0 0 0 10 10 3 16 23 23 19 13 10
0 0 0 0 0 0 3 0 0 0 0 0 0 0 0 0 3 3 0 0 0 0 0 0 0 0 0 0 0 0 0 0 0 0 0 0 0 0 0 0 0 3 6 3 6 19 6 6 6
0 0 0 0 0 0 0 0 0 0 0 0 0 0 0 0 0 3 0 0 0 0 0 0 0 0 0 0 0 0 0 0 0 0 0 0 0 0 0 0 0 3 0 0 10 6 6 3 0
0 0 0 0 0 0 0 0 0 0 0 0 3 0 0 0 0 0 3 0 0 0 0 0 0 0 0 0 0 0 0 0 0 0 0 0 0 0 0 0 0 3 0 0 3 3 3 3 3
0 0 0 0 0 3 0 0 0 3 0 0 0 0 0 0 0 0 0 0 0 0 0 0 0 0 0 0 0 0 0 0 0 0 0 0 0 0 0 0 0 0 0 0 0 3 3 3 6
0 0 0 0 0 0 0 0 0 0 0 0 0 0 0 0 0 0 0 0 0 0 0 0 0 0 0 0 0 0 0 0 0 0 0 0 0 0 0 0 0 0 0 0 0 3 3 3 0
0 0 0 0 0 0 0 0 0 0 0 0 0 0 0 0 0 0 0 0 0 0 0 0 0 0 0 0 0 0 0 0 0 0 0 0 0 0 0 0 0 0 0 0 0 3 3 0 0
0 0 0 0 0 0 0 0 0 0 0 0 0 0 0 0 0 0 0 0 0 0 0 0 0 0 0 0 0 0 0 0 0 0 0 0 0 0 0 0 0 0 0 0 0 0 0 0 0
0 0 0 0 0 0 0 0 0 0 0 0 0 0 0 0 0 0 0 0 0 0 0 0 0 0 0 0 0 0 0 0 0 0 0 0 0 0 0 0 0 0 0 0 0 0 0 0 0
0 0 0 0 0 0 0 0 0 0 0 0 0 0 0 0 0 0 0 0 0 0 0 0 0 0 0 0 0 0 0 0 0 0 0 0 0 0 0 0 0 0 0 0 0 0 0 0 0
0 0 0 0 0 0 0 0 0 0 0 0 0 0 0 0 0 0 0 0 0 0 0 0 0 0 0 0 0 0 0 0 0 0 0 0 0 0 0 0 0 0 0 0 0 0 0 0 0
0 0 0 0 0 0 0 0 0 0 0 0 0 0 0 0 0 0 0 0 0 0 0 0 0 0 0 0 0 0 0 0 0 0 0 0 0 0 0 0 0 0 0 0 0 0 0 0 0
0 0 0 0 0 0 0 0 0 0 0 0 0 0 0 0 0 0 0 0 0 0 0 0 0 0 0 0 0 0 0 0 0 0 0 0 0 0 0 0 0 0 0 0 0 0 0 0 0
0 0 0 0 0 0 0 0 0 0 0 0 0 0 0 0 0 0 0 0 0 0 0 0 0 0 0 0 0 0 0 0 0 0 0 0 0 0 0 0 0 0 0 0 0 0 0 0 0
0 0 0 0 0 0 0 0 0 0 0 0 0 0 0 0 0 0 0 0 0 0 0 0 0 0 0 0 0 0 0 0 0 0 0 0 0 0 0 0 0 0 0 0 0 0 0 0 0
0 0 0 0 0 0 0 0 0 0 0 0 0 0 0 0 0 0 0 0 0 0 0 0 3 3 0 0 0 0 0 0 0 0 0 0 0 0 0 0 0 0 0 0 0 0 0 0 0
0 0 0 0 0 0 0 0 0 0 0 0 0 0 0 0 0 0 0 0 0 3 3 3 3 3 3 3 0 0 0 0 0 0 0 0 0 0 0 0 0 0 0 0 0 0 0 0 0
0 0 0 0 0 0 0 0 0 0 0 0 0 0 0 0 0 0 0 0 0 3 3 3 3 3 3 3 3 0 0 0 0 3 3 3 3 3 0 0 0 0 0 0 0 0 0 0 0
0 0 0 0 0 0 0 0 0 0 0 0 0 0 0 0 0 0 0 0 0 3 3 3 3 3 3 3 3 3 3 3 3 3 3 3 3 3 3 3 3 0 0 0 0 0 0 0 0
0 0 0 0 0 0 0 0 0 0 0 0 0 0 0 0 0 0 0 0 0 3 3 3 3 3 3 3 3 3 3 3 3 3 3 3 3 3 3 3 3 3 3 0 0 0 0 0 0
0 0 0 0 0 0 0 0 0 0 0 0 0 0 0 0 0 0 0 0 0 0 0 0 0 0 0 0 0 0 0 0 0 0 0 0 0 0 0 0 3 3 3 3 0 0 0 0 0
Height
5871 5872 5873 5874 5876 5876 5876 5877 5877 5878 5879 5880 5881 5882 5883 5884 5886 5888 5886 5886 5886 5887 5887 5887 5887 5887 5887 5886 5886 5886 5885 5885 5884 5883 5883 5882 5881 5880 5879 5879 5878 5878 5877 5877 5877 5877 5877 5877 5877
5870 5871 5873 5874 5875 5875 5876 5876 5877 5878 5879 5879 5880 5882 5883 5883 5884 5885 5885 5886 5886 5887 5887 5887 5887 5887 5886 5886 5886 5886 5885 5885 5884 5883 5882 5882 5881 5880 5879 5878 5878 5877 5876 5876 5876 5876 5876 5876 5876
5869 5871 5873 5873 5874 5874 5875 5875 5876 5877 5878 5879 5880 5881 5882 5883 5884 5884 5885 5885 5886 5886 5886 5887 5886 5886 5886 5886 5886 5886 5885 5885 5884 5883 5882 5881 5881 5880 5879 5878 5877 5876 5876 5875 5875 5875 5875 5875 5875
5869 5871 5872 5873 5872 5873 5874 5874 5875 5876 5877 5878 5880 5881 5881 5882 5883 5883 5884 5885 5886 5886 5886 5886 5886 5886 5886 5886 5886 5885 5885 5884 5884 5883 5882 5881 5880 5879 5878 5877 5876 5876 5875 5874 5874 5874 5874 5874 5874
5867 5869 5871 5871 5871 5872 5873 5873 5874 5875 5876 5878 5879 5880 5880 5882 5882 5883 5883 5884 5885 5885 5886 5886 5886 5886 5886 5886 5886 5885 5885 5884 5884 5883 5882 5881 5880 5879 5878 5877 5876 5875 5874 5874 5873 5873 5873 5873 5873
5866 5868 5869 5869 5870 5871 5871 5872 5873 5874 5875 5877 5878 5879 5880 5881 5881 5882 5883 5883 5884 5885 5885 5885 5885 5885 5885 5886 5886 5885 5885 5884 5884 5883 5882 5880 5879 5878 5877 5876 5875 5874 5873 5873 5872 5872 5872 5872 5872
5864 5866 5867 5868 5868 5869 5870 5871 5872 5873 5874 5876 5877 5878 5879 5880 5880 5881 5882 5882 5883 5884 5884 5885 5885 5885 5885 5885 5885 5885 5885 5884 5883 5883 5881 5880 5879 5878 5877 5875 5874 5874 5873 5872 5871 5871 5871 5871 5871
5862 5864 5865 5866 5867 5868 5869 5870 5871 5872 5873 5874 5876 5877 5878 5879 5880 5881 5881 5881 5882 5883 5884 5884 5884 5885 5885 5885 5885 5885 5885 5884 5883 5882 5881 5880 5879 5878 5876 5875 5874 5873 5872 5871 5871 5870 5870 5870 5870
5860 5862 5863 5864 5865 5866 5867 5868 5869 5870 5872 5873 5874 5876 5877 5878 5879 5880 5880 5881 5882 5882 5883 5883 5884 5884 5884 5885 5885 5885 5884 5884 5883 5882 5881 5880 5879 5877 5876 5875 5874 5873 5872 5871 5870 5870 5869 5869 5869
5858 5859 5860 5861 5863 5864 5865 5867 5868 5869 5870 5872 5873 5874 5875 5876 5877 5879 5880 5880 5881 5882 5882 5883 5883 5884 5884 5884 5884 5884 5884 5884 5883 5882 5881 5880 5879 5877 5876 5875 5873 5872 5871 5870 5870 5869 5869 5868 5868
5855 5857 5858 5859 5860 5862 5864 5865 5867 5868 5870 5871 5872 5873 5874 5875 5876 5877 5879 5880 5880 5881 5882 5883 5883 5884 5884 5884 5884 5884 5884 5883 5883 5882 5881 5880 5879 5877 5876 5875 5873 5872 5871 5870 5869 5869 5868 5868 5868
5853 5854 5855 5857 5859 5860 5862 5863 5865 5866 5868 5869 5870 5871 5873 5874 5875 5876 5878 5879 5880 5880 5881 5882 5883 5884 5884 5884 5884 5884 5884 5883 5882 5882 5881 5880 5878 5877 5876 5874 5873 5872 5870 5869 5869 5868 5868 5867 5867
5851 5852 5854 5855 5856 5858 5860 5862 5863 5865 5866 5867 5869 5870 5871 5873 5873 5875 5877 5878 5879 5880 5881 5882 5883 5883 5884 5884 5884 5884 5883 5883 5882 5882 5881 5880 5878 5877 5875 5874 5872 5871 5870 5869 5868 5868 5867 5867 5867
5850 5851 5852 5853 5855 5856 5858 5860 5862 5863 5865 5866 5867 5868 5870 5871 5872 5874 5875 5877 5878 5879 5880 5881 5882 5883 5884 5884 5884 5884 5883 5883 5882 5881 5880 5879 5878 5877 5875 5874 5872 5871 5870 5869 5868 5868 5867 5867 5867
5848 5850 5851 5852 5853 5855 5857 5858 5860 5861 5863 5864 5866 5867 5868 5870 5871 5872 5874 5876 5877 5878 5880 5881 5882 5883 5883 5884 5884 5883 5883 5883 5882 5881 5880 5879 5878 5877 5875 5874 5873 5871 5870 5869 5868 5867 5867 5867 5867
5847 5848 5849 5850 5851 5853 5856 5857 5858 5859 5861 5863 5864 5865 5867 5868 5870 5871 5873 5875 5876 5878 5879 5881 5882 5882 5883 5883 5884 5883 5883 5883 5882 5881 5880 5879 5878 5877 5875 5874 5873 5871 5870 5869 5868 5868 5867 5867 5867
5845 5847 5847 5849 5850 5851 5853 5855 5856 5857 5859 5861 5862 5864 5865 5867 5869 5870 5872 5874 5875 5877 5879 5880 5881 5882 5882 5883 5883 5883 5883 5882 5882 5881 5880 5879 5878 5877 5875 5874 5873 5872 5871 5870 5869 5868 5868 5867 5867
5844 5845 5846 5847 5848 5850 5851 5853 5855 5856 5857 5859 5861 5862 5864 5866 5868 5870 5871 5873 5874 5876 5878 5879 5880 5881 5882 5882 5883 5883 5882 5882 5881 5881 5880 5879 5878 5877 5876 5874 5873 5872 5871 5870 5869 5869 5868 5868 5868
5844 5845 5845 5846 5847 5849 5850 5851 5853 5854 5856 5858 5859 5861 5862 5864 5866 5868 5870 5872 5873 5875 5876 5878 5879 5880 5881 5882 5882 5882 5882 5882 5881 5880 5880 5879 5878 5877 5876 5875 5874 5872 5871 5870 5870 5869 5869 5869 5869
5843 5844 5845 5846 5846 5847 5849 5850 5851 5853 5855 5856 5857 5859 5861 5863 5865 5867 5869 5871 5872 5874 5875 5877 5878 5879 5880 5881 5881 5882 5882 5881 5881 5880 5880 5879 5878 5877 5876 5875 5874 5873 5872 5871 5870 5870 5869 5869 5869
5843 5844 5844 5845 5846 5846 5848 5849 5850 5852 5853 5855 5856 5858 5860 5862 5864 5866 5867 5869 5871 5873 5874 5876 5877 5878 5879 5880 5880 5881 5881 5881 5880 5880 5879 5878 5878 5877 5876 5875 5874 5873 5872 5871 5871 5870 5870 5870 5870
5843 5844 5844 5845 5845 5846 5848 5848 5849 5850 5852 5853 5855 5856 5858 5860 5862 5864 5866 5868 5870 5872 5873 5875 5876 5877 5878 5879 5879 5880 5880 5880 5880 5879 5879 5878 5877 5876 5875 5874 5874 5873 5872 5871 5871 5871 5870 5870 5870
5843 5844 5844 5845 5845 5846 5847 5848 5849 5849 5851 5852 5854 5855 5857 5859 5861 5863 5865 5867 5869 5871 5872 5874 5875 5876 5877 5878 5878 5879 5879 5879 5879 5879 5878 5878 5877 5876 5875 5874 5874 5873 5872 5872 5871 5871 5871 5870 5870
5844 5844 5844 5845 5845 5846 5847 5848 5849 5849 5850 5851 5852 5854 5856 5857 5859 5861 5863 5865 5867 5869 5871 5872 5874 5875 5875 5876 5877 5877 5877 5878 5878 5878 5877 5877 5876 5876 5875 5874 5874 5873 5872 5872 5871 5871 5871 5871 5870
5844 5844 5845 5845 5846 5846 5847 5847 5848 5848 5849 5850 5851 5853 5854 5856 5858 5860 5862 5864 5866 5868 5869 5871 5872 5873 5874 5875 5875 5876 5876 5876 5876 5876 5876 5876 5876 5875 5874 5874 5873 5873 5872 5871 5871 5871 5870 5870 5870
5843 5844 5846 5846 5846 5847 5847 5847 5848 5848 5849 5849 5850 5851 5853 5855 5856 5858 5860 5862 5864 5866 5867 5869 5870 5871 5872 5873 5873 5874 5874 5875 5875 5875 5875 5875 5874 5874 5873 5873 5872 5872 5871 5871 5870 5870 5869 5869 5868
5843 5843 5845 5846 5846 5847 5847 5847 5847 5847 5848 5849 5849 5850 5852 5853 5855 5857 5859 5860 5862 5864 5865 5867 5868 5869 5870 5871 5871 5872 5872 5873 5873 5873 5873 5873 5873 5873 5872 5872 5871 5871 5871 5870 5870 5869 5868 5868 5867
5843 5843 5844 5845 5846 5846 5846 5846 5847 5847 5847 5848 5849 5849 5851 5852 5853 5855 5857 5859 5860 5862 5863 5865 5866 5867 5867 5868 5869 5870 5870 5871 5871 5871 5871 5871 5871 5871 5871 5871 5870 5870 5869 5869 5868 5868 5867 5866 5865
5842 5843 5843 5844 5845 5845 5845 5847 5846 5846 5847 5847 5848 5848 5850 5851 5852 5854 5855 5857 5858 5860 5861 5862 5863 5864 5865 5866 5867 5868 5868 5869 5869 5869 5869 5869 5869 5869 5869 5869 5868 5868 5867 5867 5866 5866 5865 5864 5863
5841 5841 5842 5844 5844 5844 5845 5848 5845 5845 5845 5846 5846 5847 5848 5850 5851 5852 5854 5855 5857 5858 5859 5860 5861 5862 5863 5864 5865 5865 5866 5867 5867 5867 5867 5867 5867 5867 5867 5866 5866 5866 5865 5864 5864 5863 5863 5862 5862
Wind_Speed
5 5 6 6 6 6 6 6 7 7 7 7 8 7 6 6 5 5 4 3 3 2 1 1 1 0 1 1 2 3 3 4 4 4 4 4 4 4 4 4 4 4 4 4 4 4 4 4 4
7 7 7 7 6 6 6 7 8 7 7 7 8 8 8 6 6 5 5 4 4 3 2 1 1 0 1 2 3 3 3 3 4 5 5 5 5 5 5 5 5 5 4 4 4 5 4 4 5
8 8 8 7 7 7 7 7 8 8 8 7 7 8 8 7 7 6 6 5 5 4 3 3 2 1 1 2 2 3 3 3 4 5 5 5 6 6 6 6 6 5 5 4 4 5 5 5 4
9 9 9 8 8 8 8 7 8 9 9 8 8 8 8 8 7 8 7 6 6 5 4 3 2 2 1 1 2 3 3 4 5 5 6 6 6 6 6 6 6 5 5 5 5 5 5 5 5
10 10 10 9 9 9 10 9 9 9 10 9 9 9 9 8 8 8 8 7 7 6 5 4 3 2 1 1 2 2 3 4 5 6 6 6 6 6 6 5 5 5 6 6 5 5 5 5 5
11 11 10 10 10 10 10 10 10 10 10 10 10 9 9 9 9 9 8 7 7 6 5 5 4 2 1 1 1 2 3 5 5 6 6 6 6 6 6 6 5 5 6 6 5 5 5 5 5
11 11 11 10 11 11 10 10 10 11 11 11 10 10 10 9 9 9 8 7 7 6 5 4 3 2 2 1 0 1 3 5 5 6 6 6 6 6 6 6 6 6 6 6 5 4 4 4 5
12 12 11 11 12 12 11 11 11 10 10 11 11 11 10 10 9 9 8 8 7 6 5 5 3 2 2 1 0 1 3 4 5 5 6 6 6 6 6 6 6 6 6 5 5 4 4 4 4
14 13 13 13 13 12 11 12 11 11 10 10 10 10 11 11 10 10 9 8 6 6 5 4 4 3 2 1 0 1 3 4 5 5 6 7 7 6 6 7 7 7 6 5 5 4 4 4 3
14 14 14 14 13 13 12 12 12 11 10 11 11 11 11 10 10 10 10 8 6 6 5 4 3 2 2 1 0 1 3 4 5 6 6 7 6 6 7 7 7 7 6 5 5 4 4 3 3
13 14 14 15 14 13 13 13 12 12 11 11 11 11 11 11 11 10 10 8 7 6 5 4 3 2 1 1 1 1 3 4 5 6 6 7 7 7 7 8 7 7 6 6 5 4 4 3 2
13 13 13 14 14 14 13 13 12 11 11 12 11 11 11 10 11 10 9 8 7 6 5 4 3 3 2 1 1 2 3 4 5 6 6 7 7 7 8 8 8 7 6 6 5 4 4 3 2
12 13 13 13 14 14 14 13 13 12 11 11 11 11 11 10 11 11 9 8 7 7 6 4 4 3 2 1 1 2 3 4 5 6 6 7 8 8 8 8 7 7 6 6 5 4 4 4 2
11 12 12 13 13 14 14 14 13 13 11 11 11 11 10 10 10 11 10 9 8 7 6 5 4 3 2 1 1 2 3 4 5 6 6 7 8 8 8 8 7 7 6 6 5 5 4 4 3
10 11 11 12 13 13 14 14 14 13 12 11 11 11 11 11 10 10 10 9 8 7 6 5 4 3 2 2 2 2 3 4 5 5 6 6 7 7 8 8 8 7 7 6 6 5 4 4 3
8 10 11 11 12 13 14 14 13 14 13 11 10 10 11 11 10 10 10 9 8 8 6 5 4 3 3 2 2 3 3 4 5 5 6 6 7 7 7 8 8 7 7 6 6 5 5 4 3
8 9 10 10 10 11 12 13 12 13 13 12 11 10 11 11 10 10 10 10 9 8 7 6 5 4 4 3 3 3 4 4 4 5 5 6 6 6 7 7 8 7 7 7 6 6 5 4 3
7 8 9 9 9 10 11 11 11 12 12 12 12 11 10 11 10 10 9 10 9 8 7 7 6 5 4 4 3 3 3 3 4 4 5 5 5 6 7 7 7 7 7 7 6 5 5 5 4
7 7 8 7 7 8 9 9 10 11 12 12 12 11 10 10 9 8 8 9 9 8 8 7 6 5 4 4 3 3 3 3 3 4 5 5 5 5 6 6 6 7 6 6 6 5 5 5 4
6 7 7 7 7 8 9 9 9 9 11 12 12 11 11 10 9 8 8 7 8 8 7 6 6 5 5 4 3 3 3 2 3 3 4 5 5 5 5 5 6 6 6 5 5 5 5 5 4
4 5 5 6 7 8 8 8 9 9 10 11 11 12 12 10 8 8 8 8 8 8 7 6 6 6 5 4 3 4 3 2 2 3 4 4 4 4 4 4 5 5 5 5 5 4 4 4 4
3 3 4 5 6 6 6 6 7 8 9 10 10 11 11 10 9 8 8 8 8 8 8 7 6 6 5 4 4 4 4 3 3 3 4 4 4 4 4 4 5 5 5 4 4 4 4 4 4
3 3 3 3 4 4 5 6 6 7 8 9 10 10 11 10 9 9 9 9 9 8 8 7 7 6 5 5 5 5 5 4 3 3 3 4 4 4 4 4 4 5 5 4 4 3 3 3 3
3 3 2 2 3 3 3 5 5 5 6 8 9 9 9 10 9 10 10 10 9 9 8 7 7 7 6 5 5 5 5 5 5 4 4 4 4 4 4 4 4 4 4 4 4 4 4 4 4
3 2 1 0 1 2 3 5 5 5 6 7 8 8 8 9 9 10 10 10 10 9 9 8 8 8 7 6 6 6 6 6 6 5 5 5 5 5 4 4 4 4 4 4 3 4 4 4 4
3 3 2 1 1 2 3 5 4 4 5 7 7 7 7 8 9 10 10 11 11 10 9 9 9 8 7 7 7 7 7 7 7 6 6 5 6 6 5 5 4 4 4 4 4 4 5 5 5
4 4 3 3 2 2 3 5 5 4 5 5 6 7 7 8 8 9 9 10 10 10 10 10 10 9 8 8 8 9 8 8 7 7 6 6 6 7 6 5 5 5 5 5 5 6 6 6 6
5 4 5 5 4 4 4 5 5 5 5 5 6 7 8 8 9 9 9 10 10 10 10 10 9 9 8 9 9 8 8 8 7 7 7 7 7 7 7 7 6 7 7 7 7 7 7 7 6
5 6 6 6 5 5 5 6 6 5 6 6 6 7 8 8 9 8 9 9 9 9 9 9 9 9 9 8 8 9 8 8 8 8 8 8 8 8 8 8 8 8 8 8 8 8 8 7 7
6 7 7 8 7 7 7 7 6 6 7 7 7 8 8 8 8 9 9 9 9 9 9 9 8 9 9 10 10 10 9 9 9 9 10 10 9 9 9 10 9 10 10 10 9 9 9 8 8
Wind_Direction
212 201 196 193 194 202 207 206 210 214 211 211 212 212 210 210 213 213 214 197 206 208 203 186 194 42 50 46 20 12 14 10 12 9 4 0 356 351 344 338 328 316 304 288 278 265 261 259 261
217 208 205 203 210 211 213 217 220 220 213 216 220 225 223 222 219 218 217 211 217 220 215 217 213 253 5 12 7 6 5 360 359 357 355 353 355 354 347 339 331 322 310 295 285 271 268 265 266
216 215 218 217 218 222 223 227 230 222 220 223 225 228 225 225 224 222 223 222 223 229 227 240 246 252 312 346 0 5 7 2 353 352 354 352 348 346 343 338 334 329 318 302 293 283 276 269 262
222 219 224 226 227 230 230 232 235 230 227 228 233 231 229 228 229 227 228 229 231 235 236 241 243 265 295 341 360 9 3 356 353 351 350 351 350 346 343 337 335 334 327 313 300 289 283 274 264
229 225 226 230 235 236 235 234 234 232 226 229 233 236 233 233 235 230 230 233 235 236 235 235 242 250 252 329 350 4 2 357 355 352 349 349 350 348 344 341 337 333 330 322 307 294 285 278 268
234 229 230 233 233 237 237 234 232 231 230 231 234 239 237 237 237 232 230 231 228 229 236 238 243 248 241 290 329 358 355 353 352 351 351 350 351 350 350 349 345 337 331 323 313 299 286 276 268
235 231 230 234 233 235 236 236 234 234 235 235 233 237 234 233 233 233 229 226 223 224 234 234 231 234 241 253 286 356 356 353 351 350 351 351 353 352 351 352 349 342 334 327 321 309 291 276 263
234 232 229 236 237 239 239 235 232 233 235 234 232 231 232 230 232 234 230 227 222 224 226 225 225 224 220 227 279 1 357 355 354 353 354 352 351 351 355 353 348 342 336 331 328 320 307 289 277
234 233 231 235 239 239 239 235 234 236 237 236 232 231 235 232 233 239 237 230 230 228 222 210 210 218 220 215 269 10 2 1 0 357 355 353 351 350 352 354 351 348 345 341 338 331 324 310 288
234 234 234 236 238 239 240 236 236 237 237 238 238 237 234 230 231 237 236 225 226 228 224 213 211 213 207 211 246 359 2 359 360 357 353 353 353 351 350 353 353 351 350 346 343 338 330 322 294
233 235 235 237 238 238 240 237 239 240 237 237 236 235 234 231 230 234 230 224 226 225 222 218 223 223 210 220 290 341 355 354 356 355 355 355 356 355 352 353 354 352 351 351 349 347 343 329 308
235 238 240 237 237 238 240 240 240 243 240 235 229 230 234 236 229 222 220 220 221 222 213 219 226 225 237 259 309 342 352 354 355 354 354 356 358 357 356 354 352 351 350 350 350 354 354 354 344
238 238 239 238 237 238 240 241 241 243 241 239 236 236 239 241 236 223 222 221 229 224 213 221 223 226 229 253 312 335 353 356 355 352 353 357 360 1 3 1 357 354 355 357 358 358 356 360 3
244 242 242 240 238 237 236 238 241 241 242 241 241 242 239 241 237 226 220 221 221 219 215 219 219 226 227 265 305 328 351 355 355 353 355 358 0 3 5 5 5 2 2 3 3 4 5 1 1
248 247 248 245 243 239 235 235 236 239 238 241 243 244 240 239 234 221 213 213 217 218 218 214 222 223 234 259 304 331 346 356 355 353 355 357 359 4 8 8 9 9 9 9 8 7 5 2 3
251 250 249 247 246 239 233 231 234 235 235 238 240 241 235 232 226 220 217 215 216 220 217 216 220 225 240 258 289 324 335 348 355 356 358 359 1 5 9 12 12 12 12 11 10 12 11 11 14
250 252 251 247 246 238 232 230 234 237 237 237 236 235 230 230 225 224 221 220 218 220 217 218 223 231 244 260 281 309 325 338 354 360 1 2 7 10 13 15 14 11 11 11 11 14 17 21 23
256 253 250 245 247 235 231 234 237 238 237 235 233 233 229 226 227 228 222 221 221 221 219 219 222 228 245 261 274 293 320 336 356 3 3 4 9 13 15 17 14 13 13 13 15 19 20 22 25
261 257 249 241 244 236 233 239 239 239 236 233 231 229 226 224 226 228 225 225 220 218 219 219 221 228 240 254 268 287 307 331 353 2 2 1 4 11 11 11 14 15 15 17 19 22 24 26 29
265 250 242 240 241 241 242 243 242 241 237 232 232 231 229 225 223 228 221 223 219 215 218 222 223 226 238 252 262 280 296 318 345 354 354 354 357 4 6 7 11 15 16 16 18 21 26 28 27
268 257 248 245 250 249 251 243 240 239 239 238 238 235 233 230 227 228 219 220 219 215 218 222 226 230 241 254 263 275 286 297 324 339 340 344 350 357 3 5 6 8 10 12 16 16 17 21 21
258 253 245 244 250 247 242 245 235 235 243 241 237 235 232 234 232 226 223 223 212 215 219 224 230 235 246 258 267 269 273 282 307 325 331 342 347 348 354 359 1 6 8 9 14 12 10 11 8
231 230 255 267 254 237 232 245 241 244 248 246 236 231 228 230 226 223 219 212 209 216 222 225 230 237 246 255 265 269 266 268 288 307 317 330 336 338 343 354 358 3 4 4 6 4 0 357 351
224 235 236 237 257 257 250 256 253 255 251 241 230 227 224 224 224 221 215 211 214 218 223 227 232 238 246 254 264 267 265 265 275 288 301 314 320 324 328 338 344 348 350 349 348 347 342 340 336
225 222 181 216 292 281 278 270 272 258 245 237 233 229 227 219 223 219 217 218 217 221 231 238 241 243 249 252 260 265 265 267 271 277 288 298 305 310 317 324 325 329 333 334 329 326 320 314 313
220 212 188 196 248 280 280 282 290 273 251 244 241 233 224 222 225 221 223 222 222 227 235 242 245 246 249 254 263 264 265 272 273 276 282 287 290 294 302 313 316 316 317 319 316 314 314 311 306
229 213 209 218 239 257 287 294 288 272 259 249 243 230 222 225 228 220 223 223 226 232 237 243 246 248 252 259 264 265 263 270 274 276 279 285 289 290 293 297 304 305 307 307 310 311 313 312 304
234 220 210 215 225 230 252 273 280 276 266 257 244 232 228 229 225 222 221 225 230 235 241 246 246 251 257 258 261 262 259 265 269 273 275 279 287 286 285 290 293 292 295 298 299 303 305 311 304
232 221 215 224 227 229 239 254 277 285 278 268 255 242 236 230 223 223 226 228 235 241 246 244 247 250 254 256 257 256 255 260 265 272 270 275 283 285 284 281 283 287 289 291 295 300 298 300 302
240 232 225 224 225 229 247 263 276 282 276 263 254 246 241 232 231 230 231 237 240 246 249 250 252 252 255 255 256 259 257 263 269 272 273 275 279 282 283 281 281 283 284 286 288 292 293 295 295